Wetterdaten: aktuell Mittwoch, 17.07.2019 04:30
Datum Zeit Temp. I. Temp. A. Feuchte I. Feuchte A. Luftdruck Regen Wind Richtung Richtung Taupunkt Windchill Windben Empfang
17.07.2019 04:30 21,5 C 13,7 C 52 % 80 % 1014,4 hPa 0,0 l/m 0,0 km/h (0 Bft) - - 0 10,3 C 13,7 C 0,0 km/h (0 Bft) 100,00 %
17.07.2019 04:25 21,5 C 13,8 C 52 % 79 % 1014,4 hPa 0,0 l/m 0,0 km/h (0 Bft) - - 0 10,2 C 13,8 C 0,0 km/h (0 Bft) 100,00 %
17.07.2019 04:20 21,6 C 14,0 C 52 % 78 % 1014,4 hPa 0,0 l/m 0,0 km/h (0 Bft) - - 0 10,2 C 14,0 C 0,0 km/h (0 Bft) 100,00 %
17.07.2019 04:15 21,6 C 14,1 C 52 % 78 % 1014,4 hPa 0,0 l/m 0,0 km/h (0 Bft) - - 0 10,3 C 14,1 C 0,0 km/h (0 Bft) 100,00 %
17.07.2019 04:10 21,6 C 14,1 C 52 % 78 % 1014,5 hPa 0,0 l/m 0,0 km/h (0 Bft) - - 0 10,3 C 14,1 C 0,0 km/h (0 Bft) 100,00 %
17.07.2019 04:05 21,6 C 14,1 C 52 % 78 % 1014,5 hPa 0,0 l/m 0,0 km/h (0 Bft) - - 0 10,3 C 14,1 C 0,0 km/h (0 Bft) 100,00 %
17.07.2019 04:00 21,7 C 14,1 C 52 % 78 % 1014,5 hPa 0,0 l/m 0,0 km/h (0 Bft) - - 0 10,3 C 14,1 C 0,0 km/h (0 Bft) 100,00 %
17.07.2019 03:55 21,7 C 14,1 C 52 % 78 % 1014,5 hPa 0,0 l/m 0,0 km/h (0 Bft) - - 0 10,3 C 14,1 C 0,0 km/h (0 Bft) 100,00 %
17.07.2019 03:50 21,7 C 14,1 C 52 % 78 % 1014,5 hPa 0,0 l/m 0,0 km/h (0 Bft) - - 0 10,3 C 14,1 C 0,0 km/h (0 Bft) 100,00 %
17.07.2019 03:45 21,7 C 14,1 C 52 % 78 % 1014,5 hPa 0,0 l/m 0,0 km/h (0 Bft) - - 0 10,3 C 14,1 C 0,0 km/h (0 Bft) 100,00 %
17.07.2019 03:40 21,8 C 14,1 C 52 % 78 % 1014,6 hPa 0,0 l/m 0,0 km/h (0 Bft) - - 0 10,3 C 14,1 C 0,0 km/h (0 Bft) 100,00 %
17.07.2019 03:35 21,8 C 14,1 C 52 % 78 % 1014,6 hPa 0,0 l/m 0,0 km/h (0 Bft) - - 0 10,3 C 14,1 C 0,0 km/h (0 Bft) 100,00 %
17.07.2019 03:30 21,8 C 14,3 C 51 % 78 % 1014,6 hPa 0,0 l/m 0,0 km/h (0 Bft) - - 0 10,5 C 14,3 C 0,0 km/h (0 Bft) 100,00 %
17.07.2019 03:25 21,8 C 14,3 C 51 % 77 % 1014,6 hPa 0,0 l/m 0,0 km/h (0 Bft) - - 0 10,3 C 14,3 C 0,0 km/h (0 Bft) 100,00 %
17.07.2019 03:20 21,9 C 14,3 C 51 % 77 % 1014,6 hPa 0,0 l/m 0,0 km/h (0 Bft) - - 0 10,3 C 14,3 C 0,0 km/h (0 Bft) 100,00 %
17.07.2019 03:15 21,9 C 14,4 C 51 % 77 % 1014,6 hPa 0,0 l/m 0,0 km/h (0 Bft) - - 0 10,4 C 14,4 C 0,0 km/h (0 Bft) 100,00 %
17.07.2019 03:10 21,9 C 14,6 C 51 % 77 % 1014,7 hPa 0,0 l/m 0,0 km/h (0 Bft) - - 0 10,6 C 14,6 C 0,0 km/h (0 Bft) 100,00 %
17.07.2019 03:05 22,0 C 14,8 C 51 % 76 % 1014,7 hPa 0,0 l/m 0,0 km/h (0 Bft) - - 0 10,6 C 14,8 C 0,0 km/h (0 Bft) 100,00 %
17.07.2019 03:00 22,1 C 15,0 C 51 % 75 % 1014,8 hPa 0,0 l/m 0,0 km/h (0 Bft) - - 0 10,6 C 15,0 C 0,0 km/h (0 Bft) 100,00 %
17.07.2019 02:55 22,1 C 15,3 C 51 % 74 % 1014,8 hPa 0,0 l/m 0,0 km/h (0 Bft) - - 0 10,7 C 15,3 C 0,0 km/h (0 Bft) 100,00 %
17.07.2019 02:50 22,1 C 15,6 C 51 % 73 % 1014,9 hPa 0,0 l/m 0,0 km/h (0 Bft) - - 0 10,8 C 15,6 C 0,0 km/h (0 Bft) 100,00 %
17.07.2019 02:45 22,2 C 15,9 C 51 % 72 % 1014,9 hPa 0,0 l/m 0,0 km/h (0 Bft) - - 0 10,9 C 15,9 C 0,0 km/h (0 Bft) 100,00 %
17.07.2019 02:40 22,2 C 16,2 C 51 % 70 % 1014,9 hPa 0,0 l/m 0,0 km/h (0 Bft) - - 0 10,7 C 16,2 C 0,0 km/h (0 Bft) 100,00 %
17.07.2019 02:35 22,2 C 16,4 C 51 % 69 % 1014,9 hPa 0,0 l/m 0,0 km/h (0 Bft) - - 0 10,7 C 16,4 C 0,0 km/h (0 Bft) 100,00 %
17.07.2019 02:30 22,2 C 16,7 C 51 % 68 % 1014,9 hPa 0,0 l/m 0,0 km/h (0 Bft) - - 0 10,8 C 16,7 C 0,0 km/h (0 Bft) 100,00 %
17.07.2019 02:25 22,2 C 16,8 C 51 % 67 % 1014,9 hPa 0,0 l/m 0,0 km/h (0 Bft) - - 0 10,6 C 16,8 C 0,0 km/h (0 Bft) 100,00 %
17.07.2019 02:20 22,3 C 16,9 C 51 % 66 % 1015,0 hPa 0,0 l/m 0,0 km/h (0 Bft) - - 0 10,5 C 16,9 C 0,0 km/h (0 Bft) 100,00 %
17.07.2019 02:15 22,3 C 16,9 C 51 % 66 % 1015,0 hPa 0,0 l/m 0,0 km/h (0 Bft) W 270 10,5 C 16,9 C 1,6 km/h (1 Bft) 100,00 %
17.07.2019 02:10 22,3 C 16,9 C 51 % 66 % 1015,0 hPa 0,0 l/m 0,0 km/h (0 Bft) W 270 10,5 C 16,9 C 3,2 km/h (1 Bft) 100,00 %
17.07.2019 02:05 22,3 C 17,1 C 51 % 66 % 1015,0 hPa 0,0 l/m 0,0 km/h (0 Bft) W-SW 247 10,7 C 17,1 C 1,6 km/h (1 Bft) 100,00 %
17.07.2019 02:00 22,3 C 17,1 C 51 % 66 % 1015,1 hPa 0,0 l/m 0,0 km/h (0 Bft) N 360 10,7 C 17,1 C 1,6 km/h (1 Bft) 100,00 %
17.07.2019 01:55 22,3 C 17,2 C 51 % 66 % 1015,1 hPa 0,0 l/m 0,0 km/h (0 Bft) W-NW 292 10,8 C 17,2 C 6,4 km/h (2 Bft) 100,00 %
17.07.2019 01:50 22,3 C 17,2 C 51 % 66 % 1015,1 hPa 0,0 l/m 0,0 km/h (0 Bft) W-SW 247 10,8 C 17,2 C 4,8 km/h (1 Bft) 100,00 %
17.07.2019 01:45 22,4 C 17,2 C 51 % 66 % 1015,2 hPa 0,0 l/m 0,0 km/h (0 Bft) W-SW 247 10,8 C 17,2 C 1,6 km/h (1 Bft) 100,00 %
17.07.2019 01:40 22,4 C 17,3 C 51 % 66 % 1015,2 hPa 0,0 l/m 0,0 km/h (0 Bft) W-NW 292 10,9 C 17,3 C 1,6 km/h (1 Bft) 100,00 %
17.07.2019 01:35 22,4 C 17,3 C 51 % 66 % 1015,2 hPa 0,0 l/m 0,0 km/h (0 Bft) - - 0 10,9 C 17,3 C 0,0 km/h (0 Bft) 100,00 %
17.07.2019 01:30 22,4 C 17,3 C 51 % 65 % 1015,1 hPa 0,0 l/m 0,0 km/h (0 Bft) SW 225 10,7 C 17,3 C 3,2 km/h (1 Bft) 100,00 %
17.07.2019 01:25 22,4 C 17,3 C 51 % 65 % 1015,2 hPa 0,0 l/m 0,0 km/h (0 Bft) W-SW 247 10,7 C 17,3 C 1,6 km/h (1 Bft) 100,00 %
17.07.2019 01:20 22,4 C 17,4 C 51 % 65 % 1015,2 hPa 0,0 l/m 0,0 km/h (0 Bft) W 270 10,8 C 17,4 C 1,6 km/h (1 Bft) 100,00 %
17.07.2019 01:15 22,4 C 17,4 C 51 % 65 % 1015,1 hPa 0,0 l/m 0,0 km/h (0 Bft) W-SW 247 10,8 C 17,4 C 1,6 km/h (1 Bft) 100,00 %
17.07.2019 01:10 22,4 C 17,4 C 51 % 65 % 1015,1 hPa 0,0 l/m 0,0 km/h (0 Bft) W-NW 292 10,8 C 17,4 C 3,2 km/h (1 Bft) 100,00 %
17.07.2019 01:05 22,5 C 17,4 C 51 % 65 % 1015,1 hPa 0,0 l/m 0,0 km/h (0 Bft) SW 225 10,8 C 17,4 C 1,6 km/h (1 Bft) 100,00 %
17.07.2019 01:00 22,5 C 17,4 C 51 % 65 % 1015,1 hPa 0,0 l/m 0,0 km/h (0 Bft) - - 0 10,8 C 17,4 C 0,0 km/h (0 Bft) 100,00 %
17.07.2019 00:55 22,5 C 17,5 C 51 % 65 % 1015,1 hPa 0,0 l/m 0,0 km/h (0 Bft) SW 225 10,8 C 17,5 C 1,6 km/h (1 Bft) 100,00 %
17.07.2019 00:50 22,5 C 17,5 C 51 % 65 % 1015,1 hPa 0,0 l/m 0,0 km/h (0 Bft) - - 0 10,8 C 17,5 C 0,0 km/h (0 Bft) 100,00 %
17.07.2019 00:45 22,6 C 17,6 C 51 % 64 % 1015,1 hPa 0,0 l/m 0,0 km/h (0 Bft) - - 0 10,7 C 17,6 C 0,0 km/h (0 Bft) 100,00 %
17.07.2019 00:40 22,6 C 17,5 C 51 % 65 % 1015,0 hPa 0,0 l/m 0,0 km/h (0 Bft) W 270 10,8 C 17,5 C 1,6 km/h (1 Bft) 100,00 %
17.07.2019 00:35 22,6 C 17,4 C 51 % 65 % 1015,1 hPa 0,0 l/m 0,0 km/h (0 Bft) W-SW 247 10,8 C 17,4 C 1,6 km/h (1 Bft) 100,00 %
17.07.2019 00:30 22,6 C 17,4 C 51 % 65 % 1015,0 hPa 0,0 l/m 0,0 km/h (0 Bft) - - 0 10,8 C 17,4 C 0,0 km/h (0 Bft) 100,00 %
17.07.2019 00:25 22,6 C 17,5 C 51 % 65 % 1015,1 hPa 0,0 l/m 0,0 km/h (0 Bft) - - 0 10,8 C 17,5 C 0,0 km/h (0 Bft) 100,00 %
17.07.2019 00:20 22,6 C 17,6 C 51 % 65 % 1015,1 hPa 0,0 l/m 0,0 km/h (0 Bft) - - 0 10,9 C 17,6 C 0,0 km/h (0 Bft) 100,00 %
17.07.2019 00:15 22,7 C 17,7 C 51 % 64 % 1015,1 hPa 0,0 l/m 0,0 km/h (0 Bft) - - 0 10,8 C 17,7 C 0,0 km/h (0 Bft) 100,00 %
17.07.2019 00:10 22,7 C 17,7 C 51 % 64 % 1015,1 hPa 0,0 l/m 0,0 km/h (0 Bft) - - 0 10,8 C 17,7 C 0,0 km/h (0 Bft) 100,00 %
17.07.2019 00:05 22,7 C 17,7 C 51 % 64 % 1015,0 hPa 0,0 l/m 0,0 km/h (0 Bft) - - 0 10,8 C 17,7 C 0,0 km/h (0 Bft) 100,00 %
17.07.2019 00:00 22,7 C 17,8 C 51 % 64 % 1015,0 hPa 0,0 l/m 0,0 km/h (0 Bft) - - 0 10,9 C 17,8 C 0,0 km/h (0 Bft) 100,00 %
_ Min-Zeit 04:25 04:30 00:00 00:00 04:15 - 00:00 - - 04:25 04:30 00:00 00:00
Minimum _ 21,5 C 13,6 C 51 % 64 % 1014,4 hPa - 0,0 km/h (0 Bft) - - 10,2 C 13,7 C 0,0 km/h (0 Bft) 100,00 %
_ Max-Zeit 00:00 00:00 03:35 04:30 01:20 00:00 00:00 - - 00:20 00:00 01:55 00:00
Maximum _ 22,7 C 17,8 C 52 % 80 % 1015,2 hPa 0,0 l/m 0,0 km/h
- - (0 Bft)
- - 10,9 C 17,8 C 6,4 km/h
W-SW (2 Bft)
100,00 %
Durchschnitt _ 22,2 C 16,1 C 51 % 70 % 1014,9 hPa #0,0 l/m 0,0 km/h (0 Bft) - - - 10,6 C 16,1 C 0,7 km/h (0 Bft) 100,00 %